ASTRA 1H

Last updated on Sat Oct 26 2019 04:24:50 GMT+0000 (Coordinated Universal Time)

1 25785U 99033A 19298.59628071 .00000048 00000-0 00000+0 0 9999 2 25785 5.4833 65.1452 0007212 106.0942 320.4539 0.98940842 74459
UTC large
Height (km)
Speed (km/s)
/
Latitude / Longitude
Inclination (degrees)
Orbital Period (minutes)
Azimuth
Elevation
Range (km)
Doppler Factor

Next 0 passes for location: London (51.5072 / 0.1276)

Sorry there are no passes over London.
ASTRA 1H